Year,Month,Day,Hour,Minute,Value (Times are PST for insolation in W/m^2)
2010,07,06,00,00,0.00
2010,07,06,00,01,0.00
2010,07,06,00,02,0.00
2010,07,06,00,03,0.00
2010,07,06,00,04,0.00
2010,07,06,00,05,0.00
2010,07,06,00,06,0.00
2010,07,06,00,07,0.00
2010,07,06,00,08,0.00
2010,07,06,00,09,0.00
2010,07,06,00,10,0.00
2010,07,06,00,11,0.00
2010,07,06,00,12,0.00
2010,07,06,00,13,0.00
2010,07,06,00,14,0.00
2010,07,06,00,15,0.00
2010,07,06,00,16,0.00
2010,07,06,00,17,0.00
2010,07,06,00,18,0.00
2010,07,06,00,19,0.00
2010,07,06,00,20,0.00
2010,07,06,00,21,0.00
2010,07,06,00,22,0.00
2010,07,06,00,23,0.00
2010,07,06,00,24,0.00
2010,07,06,00,25,0.00
2010,07,06,00,26,0.00
2010,07,06,00,27,0.00
2010,07,06,00,28,0.00
2010,07,06,00,29,0.00
2010,07,06,00,30,0.00
2010,07,06,00,31,0.00
2010,07,06,00,32,0.00
2010,07,06,00,33,0.00
2010,07,06,00,34,0.00
2010,07,06,00,35,0.00
2010,07,06,00,36,0.00
2010,07,06,00,37,0.00
2010,07,06,00,38,0.00
2010,07,06,00,39,0.00
2010,07,06,00,40,0.00
2010,07,06,00,41,0.00
2010,07,06,00,42,0.00
2010,07,06,00,43,0.00
2010,07,06,00,44,0.00
2010,07,06,00,45,0.00
2010,07,06,00,46,0.00
2010,07,06,00,47,0.00
2010,07,06,00,48,0.00
2010,07,06,00,49,0.00
2010,07,06,00,50,0.00
2010,07,06,00,51,0.00
2010,07,06,00,52,0.00
2010,07,06,00,53,0.00
2010,07,06,00,54,0.00
2010,07,06,00,55,0.00
2010,07,06,00,56,0.00
2010,07,06,00,57,0.00
2010,07,06,00,58,0.00
2010,07,06,00,59,0.00
2010,07,06,01,00,0.00
2010,07,06,01,01,0.00
2010,07,06,01,02,0.00
2010,07,06,01,03,0.00
2010,07,06,01,04,0.00
2010,07,06,01,05,0.00
2010,07,06,01,06,0.00
2010,07,06,01,07,0.00
2010,07,06,01,08,0.00
2010,07,06,01,09,0.00
2010,07,06,01,10,0.00
2010,07,06,01,11,0.00
2010,07,06,01,12,0.00
2010,07,06,01,13,0.00
2010,07,06,01,14,0.00
2010,07,06,01,15,0.00
2010,07,06,01,16,0.00
2010,07,06,01,17,0.00
2010,07,06,01,18,0.00
2010,07,06,01,19,0.00
2010,07,06,01,20,0.00
2010,07,06,01,21,0.00
2010,07,06,01,22,0.00
2010,07,06,01,23,0.00
2010,07,06,01,24,0.00
2010,07,06,01,25,0.00
2010,07,06,01,26,0.00
2010,07,06,01,27,0.00
2010,07,06,01,28,0.00
2010,07,06,01,29,0.00
2010,07,06,01,30,0.00
2010,07,06,01,31,0.00
2010,07,06,01,32,0.00
2010,07,06,01,33,0.00
2010,07,06,01,34,0.00
2010,07,06,01,35,0.00
2010,07,06,01,36,0.00
2010,07,06,01,37,0.00
2010,07,06,01,38,0.00
2010,07,06,01,39,0.00
2010,07,06,01,40,0.00
2010,07,06,01,41,0.00
2010,07,06,01,42,0.00
2010,07,06,01,43,0.00
2010,07,06,01,44,0.00
2010,07,06,01,45,0.00
2010,07,06,01,46,0.00
2010,07,06,01,47,0.00
2010,07,06,01,48,0.00
2010,07,06,01,49,0.00
2010,07,06,01,50,0.00
2010,07,06,01,51,0.00
2010,07,06,01,52,0.00
2010,07,06,01,53,0.00
2010,07,06,01,54,0.00
2010,07,06,01,55,0.00
2010,07,06,01,56,0.00
2010,07,06,01,57,0.00
2010,07,06,01,58,0.00
2010,07,06,01,59,0.00
2010,07,06,02,00,0.00
2010,07,06,02,01,0.00
2010,07,06,02,02,0.00
2010,07,06,02,03,0.00
2010,07,06,02,04,0.00
2010,07,06,02,05,0.00
2010,07,06,02,06,0.00
2010,07,06,02,07,0.00
2010,07,06,02,08,0.00
2010,07,06,02,09,0.00
2010,07,06,02,10,0.00
2010,07,06,02,11,0.00
2010,07,06,02,12,0.00
2010,07,06,02,13,0.00
2010,07,06,02,14,0.00
2010,07,06,02,15,0.00
2010,07,06,02,16,0.00
2010,07,06,02,17,0.00
2010,07,06,02,18,0.00
2010,07,06,02,19,0.00
2010,07,06,02,20,0.00
2010,07,06,02,21,0.00
2010,07,06,02,22,0.00
2010,07,06,02,23,0.00
2010,07,06,02,24,0.00
2010,07,06,02,25,0.00
2010,07,06,02,26,0.00
2010,07,06,02,27,0.00
2010,07,06,02,28,0.00
2010,07,06,02,29,0.00
2010,07,06,02,30,0.00
2010,07,06,02,31,0.00
2010,07,06,02,32,0.00
2010,07,06,02,33,0.00
2010,07,06,02,34,0.00
2010,07,06,02,35,0.00
2010,07,06,02,36,0.00
2010,07,06,02,37,0.00
2010,07,06,02,38,0.00
2010,07,06,02,39,0.00
2010,07,06,02,40,0.00
2010,07,06,02,41,0.00
2010,07,06,02,42,0.00
2010,07,06,02,43,0.00
2010,07,06,02,44,0.00
2010,07,06,02,45,0.00
2010,07,06,02,46,0.00
2010,07,06,02,47,0.00
2010,07,06,02,48,0.00
2010,07,06,02,49,0.00
2010,07,06,02,50,0.00
2010,07,06,02,51,0.00
2010,07,06,02,52,0.00
2010,07,06,02,53,0.00
2010,07,06,02,54,0.00
2010,07,06,02,55,0.00
2010,07,06,02,56,0.00
2010,07,06,02,57,0.00
2010,07,06,02,58,0.00
2010,07,06,02,59,0.00
2010,07,06,03,00,0.00
2010,07,06,03,01,0.00
2010,07,06,03,02,0.00
2010,07,06,03,03,0.00
2010,07,06,03,04,0.00
2010,07,06,03,05,0.00
2010,07,06,03,06,0.00
2010,07,06,03,07,0.00
2010,07,06,03,08,0.00
2010,07,06,03,09,0.00
2010,07,06,03,10,0.00
2010,07,06,03,11,0.00
2010,07,06,03,12,0.00
2010,07,06,03,13,0.00
2010,07,06,03,14,0.00
2010,07,06,03,15,0.00
2010,07,06,03,16,0.00
2010,07,06,03,17,0.00
2010,07,06,03,18,0.00
2010,07,06,03,19,0.00
2010,07,06,03,20,0.00
2010,07,06,03,21,0.00
2010,07,06,03,22,0.00
2010,07,06,03,23,0.00
2010,07,06,03,24,0.00
2010,07,06,03,25,0.00
2010,07,06,03,26,0.00
2010,07,06,03,27,0.00
2010,07,06,03,28,0.00
2010,07,06,03,29,0.00
2010,07,06,03,30,0.00
2010,07,06,03,31,0.00
2010,07,06,03,32,0.00
2010,07,06,03,33,0.00
2010,07,06,03,34,0.00
2010,07,06,03,35,0.00
2010,07,06,03,36,0.00
2010,07,06,03,37,0.00
2010,07,06,03,38,0.00
2010,07,06,03,39,0.00
2010,07,06,03,40,0.00
2010,07,06,03,41,0.00
2010,07,06,03,42,0.00
2010,07,06,03,43,0.00
2010,07,06,03,44,0.00
2010,07,06,03,45,0.00
2010,07,06,03,46,0.00
2010,07,06,03,47,0.00
2010,07,06,03,48,0.00
2010,07,06,03,49,0.00
2010,07,06,03,50,0.00
2010,07,06,03,51,0.00
2010,07,06,03,52,0.00
2010,07,06,03,53,0.00
2010,07,06,03,54,0.00
2010,07,06,03,55,0.00
2010,07,06,03,56,0.00
2010,07,06,03,57,0.00
2010,07,06,03,58,0.00
2010,07,06,03,59,0.00
2010,07,06,04,00,0.00
2010,07,06,04,01,0.00
2010,07,06,04,02,0.00
2010,07,06,04,03,0.00
2010,07,06,04,04,0.00
2010,07,06,04,05,0.00
2010,07,06,04,06,0.00
2010,07,06,04,07,0.00
2010,07,06,04,08,0.00
2010,07,06,04,09,0.00
2010,07,06,04,10,0.00
2010,07,06,04,11,0.00
2010,07,06,04,12,0.00
2010,07,06,04,13,0.00
2010,07,06,04,14,0.00
2010,07,06,04,15,0.00
2010,07,06,04,16,0.00
2010,07,06,04,17,0.00
2010,07,06,04,18,0.00
2010,07,06,04,19,0.00
2010,07,06,04,20,0.00
2010,07,06,04,21,0.00
2010,07,06,04,22,0.00
2010,07,06,04,23,0.00
2010,07,06,04,24,0.00
2010,07,06,04,25,0.00
2010,07,06,04,26,0.00
2010,07,06,04,27,0.00
2010,07,06,04,28,0.00
2010,07,06,04,29,0.00
2010,07,06,04,30,0.00
2010,07,06,04,31,0.00
2010,07,06,04,32,0.00
2010,07,06,04,33,0.00
2010,07,06,04,34,0.00
2010,07,06,04,35,0.00
2010,07,06,04,36,0.00
2010,07,06,04,37,0.00
2010,07,06,04,38,0.00
2010,07,06,04,39,0.00
2010,07,06,04,40,0.00
2010,07,06,04,41,0.00
2010,07,06,04,42,0.00
2010,07,06,04,43,0.00
2010,07,06,04,44,0.00
2010,07,06,04,45,0.00
2010,07,06,04,46,0.00
2010,07,06,04,47,0.00
2010,07,06,04,48,0.00
2010,07,06,04,49,0.00
2010,07,06,04,50,0.00
2010,07,06,04,51,0.00
2010,07,06,04,52,0.00
2010,07,06,04,53,0.00
2010,07,06,04,54,0.00
2010,07,06,04,55,0.00
2010,07,06,04,56,0.00
2010,07,06,04,57,0.00
2010,07,06,04,58,0.00
2010,07,06,04,59,0.00
2010,07,06,05,00,0.00
2010,07,06,05,01,0.00
2010,07,06,05,02,0.00
2010,07,06,05,03,0.00
2010,07,06,05,04,0.00
2010,07,06,05,05,0.00
2010,07,06,05,06,0.00
2010,07,06,05,07,0.00
2010,07,06,05,08,0.00
2010,07,06,05,09,0.00
2010,07,06,05,10,0.00
2010,07,06,05,11,0.00
2010,07,06,05,12,0.00
2010,07,06,05,13,0.00
2010,07,06,05,14,0.00
2010,07,06,05,15,0.00
2010,07,06,05,16,0.00
2010,07,06,05,17,0.00
2010,07,06,05,18,0.00
2010,07,06,05,19,0.00
2010,07,06,05,20,0.00
2010,07,06,05,21,0.00
2010,07,06,05,22,0.00
2010,07,06,05,23,2.10
2010,07,06,05,24,5.00
2010,07,06,05,25,5.00
2010,07,06,05,26,5.00
2010,07,06,05,27,5.00
2010,07,06,05,28,5.00
2010,07,06,05,29,5.80
2010,07,06,05,30,7.00
2010,07,06,05,31,7.00
2010,07,06,05,32,7.00
2010,07,06,05,33,7.00
2010,07,06,05,34,7.00
2010,07,06,05,35,7.80
2010,07,06,05,36,9.00
2010,07,06,05,37,9.00
2010,07,06,05,38,9.00
2010,07,06,05,39,9.00
2010,07,06,05,40,9.80
2010,07,06,05,41,11.00
2010,07,06,05,42,11.00
2010,07,06,05,43,11.00
2010,07,06,05,44,11.00
2010,07,06,05,45,11.00
2010,07,06,05,46,11.40
2010,07,06,05,47,12.00
2010,07,06,05,48,12.00
2010,07,06,05,49,12.00
2010,07,06,05,50,12.00
2010,07,06,05,51,12.80
2010,07,06,05,52,14.00
2010,07,06,05,53,16.00
2010,07,06,05,54,23.60
2010,07,06,05,55,34.00
2010,07,06,05,56,42.40
2010,07,06,05,57,46.40
2010,07,06,05,58,47.80
2010,07,06,05,59,49.80
2010,07,06,06,00,51.00
2010,07,06,06,01,51.00
2010,07,06,06,02,49.30
2010,07,06,06,03,45.00
2010,07,06,06,04,41.20
2010,07,06,06,05,40.80
2010,07,06,06,06,41.20
2010,07,06,06,07,42.50
2010,07,06,06,08,48.10
2010,07,06,06,09,50.20
2010,07,06,06,10,51.10
2010,07,06,06,11,54.00
2010,07,06,06,12,60.70
2010,07,06,06,13,72.90
2010,07,06,06,14,79.50
2010,07,06,06,15,84.20
2010,07,06,06,16,86.80
2010,07,06,06,17,89.20
2010,07,06,06,18,91.80
2010,07,06,06,19,94.70
2010,07,06,06,20,97.40
2010,07,06,06,21,99.70
2010,07,06,06,22,102.80
2010,07,06,06,23,104.40
2010,07,06,06,24,106.70
2010,07,06,06,25,109.80
2010,07,06,06,26,111.80
2010,07,06,06,27,113.40
2010,07,06,06,28,115.70
2010,07,06,06,29,119.20
2010,07,06,06,30,121.80
2010,07,06,06,31,123.80
2010,07,06,06,32,125.80
2010,07,06,06,33,127.40
2010,07,06,06,34,128.80
2010,07,06,06,35,131.60
2010,07,06,06,36,134.40
2010,07,06,06,37,135.90
2010,07,06,06,38,137.80
2010,07,06,06,39,139.80
2010,07,06,06,40,142.20
2010,07,06,06,41,144.90
2010,07,06,06,42,146.80
2010,07,06,06,43,148.40
2010,07,06,06,44,149.80
2010,07,06,06,45,152.60
2010,07,06,06,46,155.40
2010,07,06,06,47,156.80
2010,07,06,06,48,158.80
2010,07,06,06,49,160.80
2010,07,06,06,50,163.40
2010,07,06,06,51,165.80
2010,07,06,06,52,167.80
2010,07,06,06,53,169.80
2010,07,06,06,54,172.20
2010,07,06,06,55,174.80
2010,07,06,06,56,176.80
2010,07,06,06,57,179.30
2010,07,06,06,58,181.80
2010,07,06,06,59,183.80
2010,07,06,07,00,185.40
2010,07,06,07,01,187.60
2010,07,06,07,02,190.80
2010,07,06,07,03,192.40
2010,07,06,07,04,193.80
2010,07,06,07,05,196.60
2010,07,06,07,06,199.40
2010,07,06,07,07,200.80
2010,07,06,07,08,203.70
2010,07,06,07,09,206.40
2010,07,06,07,10,207.80
2010,07,06,07,11,209.80
2010,07,06,07,12,212.30
2010,07,06,07,13,214.80
2010,07,06,07,14,217.70
2010,07,06,07,15,220.40
2010,07,06,07,16,221.80
2010,07,06,07,17,224.70
2010,07,06,07,18,228.20
2010,07,06,07,19,230.80
2010,07,06,07,20,232.80
2010,07,06,07,21,235.30
2010,07,06,07,22,238.70
2010,07,06,07,23,241.80
2010,07,06,07,24,244.20
2010,07,06,07,25,246.00
2010,07,06,07,26,247.60
2010,07,06,07,27,250.40
2010,07,06,07,28,252.70
2010,07,06,07,29,256.20
2010,07,06,07,30,259.60
2010,07,06,07,31,263.30
2010,07,06,07,32,267.50
2010,07,06,07,33,272.20
2010,07,06,07,34,275.70
2010,07,06,07,35,279.30
2010,07,06,07,36,281.80
2010,07,06,07,37,284.60
2010,07,06,07,38,287.40
2010,07,06,07,39,289.60
2010,07,06,07,40,293.20
2010,07,06,07,41,296.60
2010,07,06,07,42,299.80
2010,07,06,07,43,302.30
2010,07,06,07,44,305.70
2010,07,06,07,45,308.40
2010,07,06,07,46,310.60
2010,07,06,07,47,313.80
2010,07,06,07,48,316.20
2010,07,06,07,49,319.70
2010,07,06,07,50,322.40
2010,07,06,07,51,323.80
2010,07,06,07,52,326.60
2010,07,06,07,53,329.40
2010,07,06,07,54,331.70
2010,07,06,07,55,335.70
2010,07,06,07,56,338.00
2010,07,06,07,57,338.40
2010,07,06,07,58,340.70
2010,07,06,07,59,345.00
2010,07,06,08,00,348.80
2010,07,06,08,01,351.30
2010,07,06,08,02,353.80
2010,07,06,08,03,356.70
2010,07,06,08,04,360.30
2010,07,06,08,05,363.60
2010,07,06,08,06,366.00
2010,07,06,08,07,368.00
2010,07,06,08,08,371.80
2010,07,06,08,09,374.30
2010,07,06,08,10,376.80
2010,07,06,08,11,379.30
2010,07,06,08,12,382.70
2010,07,06,08,13,385.80
2010,07,06,08,14,388.30
2010,07,06,08,15,390.80
2010,07,06,08,16,392.90
2010,07,06,08,17,396.10
2010,07,06,08,18,399.80
2010,07,06,08,19,402.20
2010,07,06,08,20,404.80
2010,07,06,08,21,406.80
2010,07,06,08,22,409.30
2010,07,06,08,23,412.70
2010,07,06,08,24,415.80
2010,07,06,08,25,418.30
2010,07,06,08,26,420.80
2010,07,06,08,27,423.20
2010,07,06,08,28,425.80
2010,07,06,08,29,429.00
2010,07,06,08,30,433.60
2010,07,06,08,31,436.00
2010,07,06,08,32,438.00
2010,07,06,08,33,442.70
2010,07,06,08,34,445.40
2010,07,06,08,35,446.80
2010,07,06,08,36,448.80
2010,07,06,08,37,451.60
2010,07,06,08,38,455.20
2010,07,06,08,39,458.60
2010,07,06,08,40,461.40
2010,07,06,08,41,462.80
2010,07,06,08,42,465.60
2010,07,06,08,43,468.40
2010,07,06,08,44,470.70
2010,07,06,08,45,473.00
2010,07,06,08,46,475.10
2010,07,06,08,47,479.70
2010,07,06,08,48,482.00
2010,07,06,08,49,484.10
2010,07,06,08,50,488.40
2010,07,06,08,51,490.80
2010,07,06,08,52,492.80
2010,07,06,08,53,495.20
2010,07,06,08,54,497.80
2010,07,06,08,55,499.80
2010,07,06,08,56,502.20
2010,07,06,08,57,504.80
2010,07,06,08,58,507.70
2010,07,06,08,59,511.20
2010,07,06,09,00,513.80
2010,07,06,09,01,515.80
2010,07,06,09,02,518.30
2010,07,06,09,03,520.80
2010,07,06,09,04,523.70
2010,07,06,09,05,527.20
2010,07,06,09,06,529.00
2010,07,06,09,07,531.10
2010,07,06,09,08,534.80
2010,07,06,09,09,537.80
2010,07,06,09,10,540.40
2010,07,06,09,11,541.80
2010,07,06,09,12,544.60
2010,07,06,09,13,548.20
2010,07,06,09,14,550.80
2010,07,06,09,15,552.80
2010,07,06,09,16,555.30
2010,07,06,09,17,557.00
2010,07,06,09,18,559.40
2010,07,06,09,19,563.40
2010,07,06,09,20,565.70
2010,07,06,09,21,568.80
2010,07,06,09,22,570.40
2010,07,06,09,23,572.60
2010,07,06,09,24,575.80
2010,07,06,09,25,578.20
2010,07,06,09,26,581.60
2010,07,06,09,27,584.40
2010,07,06,09,28,585.90
2010,07,06,09,29,587.80
2010,07,06,09,30,590.30
2010,07,06,09,31,592.80
2010,07,06,09,32,594.80
2010,07,06,09,33,597.20
2010,07,06,09,34,600.60
2010,07,06,09,35,603.80
2010,07,06,09,36,606.20
2010,07,06,09,37,608.80
2010,07,06,09,38,611.20
2010,07,06,09,39,613.80
2010,07,06,09,40,616.80
2010,07,06,09,41,619.00
2010,07,06,09,42,620.30
2010,07,06,09,43,623.80
2010,07,06,09,44,626.90
2010,07,06,09,45,629.30
2010,07,06,09,46,631.80
2010,07,06,09,47,633.80
2010,07,06,09,48,635.40
2010,07,06,09,49,637.70
2010,07,06,09,50,640.80
2010,07,06,09,51,643.30
2010,07,06,09,52,646.60
2010,07,06,09,53,649.40
2010,07,06,09,54,650.80
2010,07,06,09,55,652.80
2010,07,06,09,56,656.00
2010,07,06,09,57,659.00
2010,07,06,09,58,660.70
2010,07,06,09,59,663.40
2010,07,06,10,00,664.80
2010,07,06,10,01,666.80
2010,07,06,10,02,668.80
2010,07,06,10,03,671.20
2010,07,06,10,04,673.90
2010,07,06,10,05,676.70
2010,07,06,10,06,679.40
2010,07,06,10,07,681.60
2010,07,06,10,08,684.00
2010,07,06,10,09,685.20
2010,07,06,10,10,687.00
2010,07,06,10,11,688.60
2010,07,06,10,12,691.80
2010,07,06,10,13,694.20
2010,07,06,10,14,696.80
2010,07,06,10,15,698.90
2010,07,06,10,16,700.40
2010,07,06,10,17,701.80
2010,07,06,10,18,704.60
2010,07,06,10,19,707.40
2010,07,06,10,20,708.80
2010,07,06,10,21,710.80
2010,07,06,10,22,712.80
2010,07,06,10,23,714.40
2010,07,06,10,24,716.60
2010,07,06,10,25,719.80
2010,07,06,10,26,721.40
2010,07,06,10,27,722.80
2010,07,06,10,28,724.00
2010,07,06,10,29,724.00
2010,07,06,10,30,726.80
2010,07,06,10,31,731.00
2010,07,06,10,32,731.80
2010,07,06,10,33,734.60
2010,07,06,10,34,738.20
2010,07,06,10,35,740.80
2010,07,06,10,36,742.00
2010,07,06,10,37,742.80
2010,07,06,10,38,745.30
2010,07,06,10,39,747.80
2010,07,06,10,40,750.30
2010,07,06,10,41,752.00
2010,07,06,10,42,753.60
2010,07,06,10,43,756.00
2010,07,06,10,44,756.80
2010,07,06,10,45,760.00
2010,07,06,10,46,763.00
2010,07,06,10,47,763.80
2010,07,06,10,48,765.40
2010,07,06,10,49,766.80
2010,07,06,10,50,768.80
2010,07,06,10,51,771.20
2010,07,06,10,52,773.00
2010,07,06,10,53,773.00
2010,07,06,10,54,774.60
2010,07,06,10,55,777.90
2010,07,06,10,56,779.40
2010,07,06,10,57,781.60
2010,07,06,10,58,783.10
2010,07,06,10,59,784.70
2010,07,06,11,00,788.00
2010,07,06,11,01,788.40
2010,07,06,11,02,789.80
2010,07,06,11,03,791.80
2010,07,06,11,04,793.00
2010,07,06,11,05,794.20
2010,07,06,11,06,796.80
2010,07,06,11,07,798.80
2010,07,06,11,08,800.80
2010,07,06,11,09,803.20
2010,07,06,11,10,805.00
2010,07,06,11,11,805.80
2010,07,06,11,12,807.80
2010,07,06,11,13,809.40
2010,07,06,11,14,810.80
2010,07,06,11,15,812.80
2010,07,06,11,16,814.80
2010,07,06,11,17,816.00
2010,07,06,11,18,816.40
2010,07,06,11,19,817.90
2010,07,06,11,20,819.80
2010,07,06,11,21,821.80
2010,07,06,11,22,823.00
2010,07,06,11,23,824.30
2010,07,06,11,24,826.80
2010,07,06,11,25,828.00
2010,07,06,11,26,828.90
2010,07,06,11,27,830.00
2010,07,06,11,28,830.40
2010,07,06,11,29,832.60
2010,07,06,11,30,835.80
2010,07,06,11,31,837.00
2010,07,06,11,32,837.00
2010,07,06,11,33,837.40
2010,07,06,11,34,838.90
2010,07,06,11,35,841.70
2010,07,06,11,36,844.00
2010,07,06,11,37,844.80
2010,07,06,11,38,846.00
2010,07,06,11,39,847.30
2010,07,06,11,40,849.80
2010,07,06,11,41,850.20
2010,07,06,11,42,850.80
2010,07,06,11,43,853.00
2010,07,06,11,44,853.50
2010,07,06,11,45,854.90
2010,07,06,11,46,856.00
2010,07,06,11,47,856.00
2010,07,06,11,48,856.80
2010,07,06,11,49,858.80
2010,07,06,11,50,860.40
2010,07,06,11,51,861.90
2010,07,06,11,52,863.00
2010,07,06,11,53,863.00
2010,07,06,11,54,863.80
2010,07,06,11,55,865.80
2010,07,06,11,56,867.00
2010,07,06,11,57,867.40
2010,07,06,11,58,868.80
2010,07,06,11,59,870.80
2010,07,06,12,00,872.00
2010,07,06,12,01,872.00
2010,07,06,12,02,872.80
2010,07,06,12,03,874.00
2010,07,06,12,04,874.40
2010,07,06,12,05,875.00
2010,07,06,12,06,875.80
2010,07,06,12,07,877.00
2010,07,06,12,08,878.80
2010,07,06,12,09,881.00
2010,07,06,12,10,881.40
2010,07,06,12,11,882.00
2010,07,06,12,12,882.00
2010,07,06,12,13,882.80
2010,07,06,12,14,884.00
2010,07,06,12,15,884.80
2010,07,06,12,16,886.00
2010,07,06,12,17,886.80
2010,07,06,12,18,888.40
2010,07,06,12,19,888.60
2010,07,06,12,20,889.30
2010,07,06,12,21,891.00
2010,07,06,12,22,890.10
2010,07,06,12,23,890.70
2010,07,06,12,24,893.00
2010,07,06,12,25,893.00
2010,07,06,12,26,893.80
2010,07,06,12,27,895.00
2010,07,06,12,28,895.40
2010,07,06,12,29,895.60
2010,07,06,12,30,895.40
2010,07,06,12,31,897.60
2010,07,06,12,32,900.00
2010,07,06,12,33,900.00
2010,07,06,12,34,900.00
2010,07,06,12,35,900.00
2010,07,06,12,36,901.60
2010,07,06,12,37,903.10
2010,07,06,12,38,902.00
2010,07,06,12,39,902.90
2010,07,06,12,40,903.10
2010,07,06,12,41,902.00
2010,07,06,12,42,902.80
2010,07,06,12,43,904.00
2010,07,06,12,44,905.30
2010,07,06,12,45,907.80
2010,07,06,12,46,908.20
2010,07,06,12,47,907.90
2010,07,06,12,48,909.00
2010,07,06,12,49,909.80
2010,07,06,12,50,910.20
2010,07,06,12,51,909.00
2010,07,06,12,52,910.30
2010,07,06,12,53,910.80
2010,07,06,12,54,909.00
2010,07,06,12,55,909.80
2010,07,06,12,56,911.00
2010,07,06,12,57,911.40
2010,07,06,12,58,912.00
2010,07,06,12,59,910.70
2010,07,06,13,00,911.10
2010,07,06,13,01,914.00
2010,07,06,13,02,913.20
2010,07,06,13,03,912.00
2010,07,06,13,04,912.90
2010,07,06,13,05,914.00
2010,07,06,13,06,914.00
2010,07,06,13,07,916.20
2010,07,06,13,08,918.50
2010,07,06,13,09,918.50
2010,07,06,13,10,919.00
2010,07,06,13,11,918.50
2010,07,06,13,12,918.40
2010,07,06,13,13,919.00
2010,07,06,13,14,919.80
2010,07,06,13,15,920.10
2010,07,06,13,16,919.00
2010,07,06,13,17,919.90
2010,07,06,13,18,921.00
2010,07,06,13,19,921.00
2010,07,06,13,20,921.00
2010,07,06,13,21,921.00
2010,07,06,13,22,921.00
2010,07,06,13,23,921.00
2010,07,06,13,24,921.00
2010,07,06,13,25,921.00
2010,07,06,13,26,921.00
2010,07,06,13,27,921.00
2010,07,06,13,28,921.00
2010,07,06,13,29,921.00
2010,07,06,13,30,920.20
2010,07,06,13,31,919.90
2010,07,06,13,32,921.00
2010,07,06,13,33,920.20
2010,07,06,13,34,919.00
2010,07,06,13,35,919.90
2010,07,06,13,36,921.00
2010,07,06,13,37,919.80
2010,07,06,13,38,918.40
2010,07,06,13,39,919.00
2010,07,06,13,40,919.00
2010,07,06,13,41,918.50
2010,07,06,13,42,918.50
2010,07,06,13,43,918.60
2010,07,06,13,44,918.00
2010,07,06,13,45,918.00
2010,07,06,13,46,917.10
2010,07,06,13,47,916.00
2010,07,06,13,48,915.20
2010,07,06,13,49,914.90
2010,07,06,13,50,914.30
2010,07,06,13,51,912.00
2010,07,06,13,52,912.00
2010,07,06,13,53,912.00
2010,07,06,13,54,912.00
2010,07,06,13,55,912.00
2010,07,06,13,56,912.00
2010,07,06,13,57,911.50
2010,07,06,13,58,910.10
2010,07,06,13,59,909.90
2010,07,06,14,00,910.10
2010,07,06,14,01,910.30
2010,07,06,14,02,911.50
2010,07,06,14,03,910.10
2010,07,06,14,04,909.00
2010,07,06,14,05,908.10
2010,07,06,14,06,907.00
2010,07,06,14,07,907.00
2010,07,06,14,08,907.00
2010,07,06,14,09,907.00
2010,07,06,14,10,906.20
2010,07,06,14,11,905.80
2010,07,06,14,12,907.00
2010,07,06,14,13,905.70
2010,07,06,14,14,904.00
2010,07,06,14,15,904.00
2010,07,06,14,16,902.40
2010,07,06,14,17,900.00
2010,07,06,14,18,899.20
2010,07,06,14,19,898.80
2010,07,06,14,20,900.80
2010,07,06,14,21,901.20
2010,07,06,14,22,898.40
2010,07,06,14,23,896.00
2010,07,06,14,24,896.00
2010,07,06,14,25,896.00
2010,07,06,14,26,896.00
2010,07,06,14,27,895.50
2010,07,06,14,28,894.20
2010,07,06,14,29,892.10
2010,07,06,14,30,891.80
2010,07,06,14,31,892.20
2010,07,06,14,32,890.10
2010,07,06,14,33,888.60
2010,07,06,14,34,888.40
2010,07,06,14,35,887.80
2010,07,06,14,36,885.20
2010,07,06,14,37,884.00
2010,07,06,14,38,884.00
2010,07,06,14,39,884.00
2010,07,06,14,40,882.80
2010,07,06,14,41,882.30
2010,07,06,14,42,881.80
2010,07,06,14,43,879.90
2010,07,06,14,44,880.10
2010,07,06,14,45,878.10
2010,07,06,14,46,877.00
2010,07,06,14,47,876.10
2010,07,06,14,48,874.60
2010,07,06,14,49,873.20
2010,07,06,14,50,872.00
2010,07,06,14,51,871.20
2010,07,06,14,52,870.00
2010,07,06,14,53,869.20
2010,07,06,14,54,868.00
2010,07,06,14,55,867.50
2010,07,06,14,56,865.10
2010,07,06,14,57,863.00
2010,07,06,14,58,862.10
2010,07,06,14,59,861.00
2010,07,06,15,00,861.80
2010,07,06,15,01,860.90
2010,07,06,15,02,858.00
2010,07,06,15,03,857.10
2010,07,06,15,04,856.00
2010,07,06,15,05,856.00
2010,07,06,15,06,854.70
2010,07,06,15,07,852.10
2010,07,06,15,08,850.10
2010,07,06,15,09,847.70
2010,07,06,15,10,846.00
2010,07,06,15,11,846.00
2010,07,06,15,12,844.20
2010,07,06,15,13,841.10
2010,07,06,15,14,840.90
2010,07,06,15,15,841.10
2010,07,06,15,16,838.60
2010,07,06,15,17,836.10
2010,07,06,15,18,835.90
2010,07,06,15,19,835.30
2010,07,06,15,20,833.00
2010,07,06,15,21,832.10
2010,07,06,15,22,831.00
2010,07,06,15,23,829.70
2010,07,06,15,24,827.20
2010,07,06,15,25,825.10
2010,07,06,15,26,824.00
2010,07,06,15,27,823.60
2010,07,06,15,28,821.20
2010,07,06,15,29,819.00
2010,07,06,15,30,816.90
2010,07,06,15,31,815.30
2010,07,06,15,32,815.70
2010,07,06,15,33,814.00
2010,07,06,15,34,812.20
2010,07,06,15,35,809.50
2010,07,06,15,36,808.10
2010,07,06,15,37,805.20
2010,07,06,15,38,803.00
2010,07,06,15,39,801.70
2010,07,06,15,40,799.10
2010,07,06,15,41,797.10
2010,07,06,15,42,795.60
2010,07,06,15,43,794.10
2010,07,06,15,44,792.20
2010,07,06,15,45,790.10
2010,07,06,15,46,788.60
2010,07,06,15,47,787.20
2010,07,06,15,48,784.40
2010,07,06,15,49,781.20
2010,07,06,15,50,780.00
2010,07,06,15,51,779.60
2010,07,06,15,52,778.10
2010,07,06,15,53,776.10
2010,07,06,15,54,774.10
2010,07,06,15,55,772.60
2010,07,06,15,56,771.10
2010,07,06,15,57,768.20
2010,07,06,15,58,765.50
2010,07,06,15,59,763.20
2010,07,06,16,00,761.00
2010,07,06,16,01,759.70
2010,07,06,16,02,758.00
2010,07,06,16,03,756.20
2010,07,06,16,04,752.70
2010,07,06,16,05,751.00
2010,07,06,16,06,751.00
2010,07,06,16,07,751.00
2010,07,06,16,08,749.40
2010,07,06,16,09,746.10
2010,07,06,16,10,743.70
2010,07,06,16,11,741.20
2010,07,06,16,12,739.10
2010,07,06,16,13,735.80
2010,07,06,16,14,733.00
2010,07,06,16,15,732.20
2010,07,06,16,16,730.10
2010,07,06,16,17,728.50
2010,07,06,16,18,727.10
2010,07,06,16,19,724.20
2010,07,06,16,20,722.00
2010,07,06,16,21,720.80
2010,07,06,16,22,718.10
2010,07,06,16,23,715.70
2010,07,06,16,24,713.20
2010,07,06,16,25,711.20
2010,07,06,16,26,708.70
2010,07,06,16,27,706.20
2010,07,06,16,28,704.20
2010,07,06,16,29,702.20
2010,07,06,16,30,699.80
2010,07,06,16,31,697.20
2010,07,06,16,32,695.10
2010,07,06,16,33,693.50
2010,07,06,16,34,691.20
2010,07,06,16,35,688.10
2010,07,06,16,36,686.60
2010,07,06,16,37,685.10
2010,07,06,16,38,682.30
2010,07,06,16,39,680.80
2010,07,06,16,40,680.00
2010,07,06,16,41,676.10
2010,07,06,16,42,673.20
2010,07,06,16,43,670.50
2010,07,06,16,44,669.10
2010,07,06,16,45,666.20
2010,07,06,16,46,663.50
2010,07,06,16,47,663.00
2010,07,06,16,48,660.40
2010,07,06,16,49,656.50
2010,07,06,16,50,653.30
2010,07,06,16,51,650.00
2010,07,06,16,52,649.60
2010,07,06,16,53,646.00
2010,07,06,16,54,642.00
2010,07,06,16,55,641.20
2010,07,06,16,56,640.00
2010,07,06,16,57,638.20
2010,07,06,16,58,635.50
2010,07,06,16,59,633.20
2010,07,06,17,00,630.10
2010,07,06,17,01,628.50
2010,07,06,17,02,626.20
2010,07,06,17,03,623.10
2010,07,06,17,04,620.70
2010,07,06,17,05,617.20
2010,07,06,17,06,614.10